This demonstration page uses our WeatherBlox Daily Observations layout. Learn more.

Left ArrowRight Arrow

Hourly Observations for June 7, 2019

Temp ( °F °C ) Dew Point ( °F °C ) Humidity (%) Winds ( mph kmh ) Pressure ( in mb ) Visibility ( mi km ) Precip ( " mm )
12:53 am 00:53 Mostly Clear 72 22.2 64 17.8 76 76 N N/A 29.86 1011 10 16 N/A
1:53 am 01:53 Mostly Cloudy 71 21.7 64 17.8 79 79 N N/A 29.86 1011 10 16 N/A
2:53 am 02:53 Cloudy 70 21.1 64 17.8 82 82 NE 5 7 29.85 1011 10 16 N/A
3:53 am 03:53 Mostly Cloudy 69 20.6 64 17.8 84 84 NE 5 7 29.86 1011 10 16 N/A
4:53 am 04:53 Cloudy 68 20 64 17.8 87 87 NNE 3 6 29.85 1011 10 16 N/A
5:53 am 05:53 Mostly Clear 67 19.4 63 17.2 87 87 NE 5 7 29.86 1011 10 16 N/A
6:53 am 06:53 Partly Cloudy 67 19.4 63 17.2 87 87 ENE 3 6 29.87 1012 8 13 N/A
7:53 am 07:53 Sunny 67 19.4 63 17.2 87 87 VRB 3 6 29.88 1012 8 13 N/A
8:53 am 08:53 Sunny 70 21.1 64 17.8 82 82 NE 8 13 29.88 1012 10 16 N/A
9:53 am 09:53 Sunny 74 23.3 65 18.3 74 74 ENE 9 15 29.88 1012 10 16 N/A
10:53 am 10:53 Sunny 76 24.4 64 17.8 67 67 NE 13 20 29.88 1012 10 16 N/A
11:53 am 11:53 Sunny 76 24.4 63 17.2 64 64 ENE 13 20 29.88 1012 10 16 N/A
12:53 pm 12:53 Sunny 78 25.6 63 17.2 60 60 ENE 14 22 29.89 1012 10 16 N/A
1:53 pm 13:53 Sunny 79 26.1 60 15.6 52 52 NE 15 24 29.88 1012 10 16 N/A
2:53 pm 14:53 Sunny 79 26.1 58 14.4 49 49 ENE 16 26 29.87 1011 10 16 N/A
3:53 pm 15:53 Sunny 78 25.6 57 13.9 48 48 ENE 12 19 29.86 1011 10 16 N/A
4:53 pm 16:53 Sunny 78 25.6 58 14.4 50 50 ENE 10 17 29.85 1011 10 16 N/A
5:53 pm 17:53 Sunny 79 26.1 58 14.4 49 49 ENE 15 24 29.83 1010 10 16 N/A
6:53 pm 18:53 Sunny 77 25 59 15 54 54 E 12 19 29.83 1010 10 16 N/A
7:53 pm 19:53 Sunny 76 24.4 60 15.6 58 58 ENE 9 15 29.85 1011 10 16 N/A
8:53 pm 20:53 Sunny 75 23.9 61 16.1 62 62 NE 12 19 29.86 1011 10 16 N/A
9:53 pm 21:53 Clear 73 22.8 62 16.7 69 69 ENE 8 13 29.87 1012 10 16 N/A
10:53 pm 22:53 Mostly Cloudy 73 22.8 61 16.1 66 66 NE 8 13 29.89 1012 10 16 N/A
11:53 pm 23:53 Cloudy 73 22.8 58 14.4 59 59 ENE 9 15 29.89 1012 10 16 N/A

Powered by AerisWeather